User: anonymous   Login
Location: San Francisco
(37.7790°N, 122.4199°W)
Time: 17:29:30
(UTC-07:00)
Language:

ELYUSIUM/LOWER FREE FLYE - Orbit

View from above orbital plane
View from above orbital plane
View from above satellite
View from above satellite

Ground track
Ground track

The orbit data is extracted from the following two-line orbital elements,

1 43760U 18099C   23155.16386300  .00010700  00000-0  73536-3 0  9995
2 43760  97.5676 221.3009 0010524 141.5956 218.6022 15.06073297245891
Epoch (UTC): 04 June 2023 03:55:57
Eccentricity: 0.0010524
inclination: 97.5676°
perigee height: 541 km
apogee height: 555 km
right ascension of ascending node: 221.3009°
argument of perigee: 141.5956°
revolutions per day: 15.06073297
mean anomaly at epoch: 218.6022°
orbit number at epoch: 24589

The dashed part of the orbit path shows where the satellite is in the earth's shadow,  

DLR